Location: Iriqui
(29.8162°N, 6.5204°W)
Time: 04:10:54
(UTC+00:00)

Daily predictions for brighter satellites

Satellite Brightness Start Highest point End
(mag) Time Altitude Azimuth Time Altitude Azimuth Time Altitude Azimuth
USA 215 4.3 00:33:07 38° NW 00:33:07 38° NW 00:36:55 10° NW
FALCON 9 R/B 3.8 00:38:26 44° ENE 00:38:26 44° ENE 00:48:17 10° ENE
NOSS 3-2 (C) 4.5 00:46:51 10° NNW 00:54:30 59° NE 00:54:30 59° NE
ATLAS 3B R/B 4.3 01:04:18 10° N 01:10:05 28° NE 01:12:43 22° E
CENTAUR R/B 3.3 01:06:14 10° NNW 01:14:40 69° ENE 01:14:47 69° ENE
ATLAS 2AS CENTAUR R/B 4.1 01:23:17 32° WNW 01:23:58 32° NW 01:30:59 10° N
CZ-2D R/B 3.9 01:27:36 10° NNE 01:30:15 27° NE 01:30:15 27° NE
ADEOS II 4.5 01:32:15 10° ENE 01:34:07 14° E 01:34:07 14° E
Resurs 1-4 Rocket 3.6 01:37:08 10° NNE 01:40:11 33° NE 01:40:11 33° NE
CZ-4C R/B 4.1 01:50:43 19° ENE 01:50:43 19° ENE 01:52:50 10° NE
SJ 16-02 4.2 01:56:26 10° NE 01:58:10 12° ENE 01:59:17 11° E
Cosmos 1709 Rocket 4.5 02:01:48 53° ENE 02:01:48 53° ENE 02:07:02 10° NNE
Cosmos 1980 Rocket 4.1 02:13:41 19° ESE 02:14:01 19° E 02:17:53 10° ENE
Cosmos 2219 4.5 02:15:07 10° N 02:20:19 37° ENE 02:22:14 29° ESE
Nadezhda 1 Rocket 4.4 02:25:33 10° NNW 02:30:28 52° NW 02:30:28 52° NW
Cosmos 2297 Rocket 3.3 02:30:36 10° N 02:35:53 40° ENE 02:39:13 20° SE
CZ-4B R/B 4.3 02:31:21 10° N 02:35:13 45° NNW 02:35:13 45° NNW
SL-16 R/B 2.7 02:41:06 58° WNW 02:41:06 58° WNW 02:46:21 10° NNW
CBERS-1 4.3 02:38:11 10° N 02:42:28 62° N 02:42:28 62° N
Cosmos 841 Rocket 3.9 02:44:27 54° ESE 02:44:27 54° ESE 02:49:33 10° NNE
Cosmos 1455 4.2 02:42:36 10° N 02:44:15 24° N 02:44:15 24° N
USA 234 3.6 02:43:38 10° NE 02:49:57 50° SE 02:51:06 46° SSE
Cosmos 2184 Rocket 4.5 02:51:54 38° SE 02:53:56 54° E 02:59:55 10° NNE
GP-B 4.0 02:50:35 10° N 02:53:36 42° NNW 02:53:36 42° NNW
SL-08 R/B 4.4 02:54:12 28° ESE 02:56:04 40° ENE 03:00:26 10° N
IRS-1D 3.9 02:51:01 10° N 02:55:45 55° NW 02:55:45 55° NW
Cosmos-2242 3.6 02:53:46 10° N 02:57:21 55° NE 02:57:21 55° NE
ATLAS 3B R/B 3.1 02:54:17 10° NW 02:59:50 45° W 02:59:50 45° W
Cosmos 1763 Rocket 4.1 03:03:46 43° NW 03:03:46 43° NW 03:08:06 10° N
Cosmos 1697 Rocket 2.7 03:04:56 63° W 03:05:11 63° WNW 03:10:49 10° NNE
Alouette 2 Rocket 3.9 03:00:21 10° NNW 03:04:51 62° NNW 03:04:51 62° NNW
Cosmos 2227 Rocket 2.3 03:05:51 10° NNW 03:11:32 73° ENE 03:15:35 20° SSE
IRS-P3 4.2 03:06:36 10° N 03:11:49 59° WNW 03:12:06 58° W
CZ-2D R/B 3.9 03:08:44 10° NNW 03:11:34 18° WNW 03:11:34 18° WNW
Cosmos 2181 Rocket 3.9 03:06:39 10° N 03:13:05 79° W 03:15:15 45° S
ADEOS II 2.3 03:09:52 10° N 03:14:55 50° WNW 03:15:03 49° W
H-2A R/B 3.8 03:13:17 10° SE 03:17:02 31° ENE 03:20:52 10° N
CZ-2C R/B 3.8 03:17:58 10° NNE 03:21:27 38° E 03:22:07 35° SE
Resurs 1-4 Rocket 4.1 03:18:54 10° NW 03:21:16 14° WNW 03:21:16 14° WNW
ASTRO E2 4.3 03:25:25 24° SE 03:25:25 24° SE 03:27:10 10° ESE
STARLINK-1235 4.3 03:23:58 25° N 03:25:15 38° NE 03:28:10 10° ESE
Cosmos 2154 Rocket 4.3 03:21:54 23° SSE 03:25:52 64° E 03:32:03 10° NNE
ARIANE 5 R/B 2.4 03:21:29 10° N 03:26:28 64° WNW 03:27:15 55° WSW
Skynet4D Del rocket 3.9 03:26:07 45° S 03:26:42 47° SSE 03:31:51 10° E
Spot 4 Rocket 3.9 03:27:16 10° N 03:32:25 81° WNW 03:34:02 45° SSW
Lacrosse 4 Rocket 4.0 03:29:09 10° N 03:32:29 22° ENE 03:35:44 10° ESE
STARLINK 1040 4.5 03:35:58 27° NNE 03:35:58 27° NNE 03:37:22 10° NNE
Cosmos 1898 Rocket 3.4 03:29:43 10° NNW 03:34:59 66° WSW 03:37:14 34° S
CZ-4C R/B 3.2 03:35:54 25° WNW 03:36:54 26° NW 03:41:27 10° N
SJ 16-02 2.0 03:32:43 10° NNW 03:36:11 39° WNW 03:36:11 39° WNW
Cosmos 2208 Rocket 4.4 03:36:15 40° W 03:37:07 44° WNW 03:42:07 10° N
STARLINK-26 3.6 03:37:51 51° SE 03:37:52 51° SE 03:41:13 10° NE
Meteor 2-17 Rocket 4.4 03:35:32 30° S 03:38:45 85° W 03:44:56 10° N
IDEFIX/ARIANE 42P 2.6 03:35:10 10° NNE 03:40:27 81° ESE 03:43:16 29° S
Cosmos 1937 Rocket 3.4 03:39:54 10° NNW 03:45:09 77° WSW 03:50:14 11° S
Cosmos 2285 Rocket 3.9 03:39:02 10° NNW 03:45:25 87° WSW 03:51:43 10° SSE
STARLINK-1317 4.4 03:45:15 29° SSE 03:45:48 31° SE 03:48:52 10° ENE
IRIDIUM 104 4.3 03:44:05 22° S 03:47:30 84° E 03:52:44 10° N
Cosmos 1842 Rocket 4.1 03:43:34 10° N 03:47:59 58° E 03:52:22 10° SSE
STARLINK-1283 4.1 03:47:35 36° SSE 03:48:26 43° SE 03:51:57 10° NE
Iridium 2 3.5 03:46:55 10° N 03:50:41 82° W 03:52:04 37° S
STARLINK-42 3.1 03:51:29 53° SSE 03:51:51 58° SE 03:55:00 10° NE
STARLINK-43 4.3 03:53:30 31° WNW 03:54:13 34° NW 03:57:36 10° NNE
ERS-2 2.2 03:53:44 48° SW 03:54:17 54° W 03:57:53 10° NNW
IRIDIUM 114 4.2 03:53:13 22° S 03:56:39 77° W 04:01:52 10° N
Cosmos 1980 Rocket 2.7 03:55:27 29° WSW 03:57:36 41° WNW 04:02:54 10° N
Cosmos 2219 4.3 03:59:54 10° NW 04:04:03 22° W 04:04:03 22° W
CZ-2C R/B 3.6 03:59:45 10° NNE 04:04:39 43° E 04:09:34 10° S
STARLINK-1316 3.5 04:04:04 33° S 04:05:01 47° SE 04:08:02 10° NE
IRIDIUM 103 4.3 04:02:22 21° SSW 04:05:49 61° W 04:10:59 10° N
STARLINK-1257 3.4 04:04:55 33° S 04:05:54 49° SE 04:08:54 10° NE
STARLINK-1256 3.4 04:05:49 33° S 04:06:51 50° SE 04:09:52 10° NE
STARLINK-1213 3.3 04:06:39 33° S 04:07:42 52° SE 04:10:44 10° NE
STARLINK-62 4.3 04:06:31 21° S 04:07:54 31° SE 04:10:46 10° ENE
STARLINK-1263 3.3 04:07:31 33° S 04:08:36 53° SE 04:11:38 10° NE
STARLINK-55 3.0 04:07:53 40° WSW 04:08:48 63° NW 04:11:58 10° NE
STARLINK-1259 3.2 04:08:22 33° SSW 04:09:29 55° SE 04:12:32 10° NE
STARLINK-34 4.2 04:08:15 22° S 04:09:41 33° SE 04:12:35 10° ENE
Cosmos 1076 Rocket 3.4 04:06:40 17° S 04:09:57 85° W 04:14:18 10° N
STARLINK-1265 3.2 04:09:00 32° SSW 04:10:08 56° SE 04:13:11 10° NE
STARLINK-1285 3.2 04:09:14 32° SSW 04:10:22 57° SE 04:13:26 10° NE
Nadezhda 3 Rocket 4.0 04:04:07 10° N 04:10:25 85° W 04:16:45 10° S
Cosmos 2341 Rocket 4.1 04:05:35 10° S 04:11:58 84° E 04:18:22 10° N
STARLINK-1296 3.1 04:10:58 32° SSW 04:12:10 61° SE 04:15:14 10° NE
Landsat 5 3.5 04:08:32 10° S 04:12:57 71° WSW 04:17:27 10° NNW
STARLINK-1260 3.1 04:11:50 31° SSW 04:13:04 63° SE 04:16:08 10° NE
STARLINK-1268 3.0 04:12:34 31° SSW 04:13:49 64° SE 04:16:53 10° NE
STARLINK-1318 3.0 04:12:41 31° SSW 04:13:58 65° SE 04:17:02 10° NE
Cosmos 836 Rocket 4.5 04:10:16 16° SSW 04:14:26 85° WNW 04:19:44 10° NNE
Meteor 1-28 Rocket 4.1 04:13:51 26° WSW 04:14:31 28° W 04:17:49 10° NW
STARLINK-1275 3.0 04:13:33 30° SSW 04:14:52 67° SE 04:17:57 10° NE
STARLINK-1291 3.1 04:14:14 29° SSW 04:15:43 70° SE 04:18:57 10° NE
STARLINK-1309 2.9 04:14:26 30° SSW 04:15:47 69° SE 04:18:52 10° NE
STARLINK-1282 2.9 04:15:19 29° SSW 04:16:41 71° SE 04:19:46 10° NE
STARLINK-1264 3.0 04:15:39 28° SSW 04:17:11 73° SE 04:20:23 10° NE
STARLINK-1313 2.7 04:16:29 31° SW 04:17:49 89° W 04:20:56 10° NE
STARLINK-1267 2.9 04:17:01 27° SSW 04:18:35 76° SE 04:21:49 10° NE
STARLINK-1279 2.7 04:17:20 30° SW 04:18:43 87° NW 04:21:50 10° NE
STARLINK-28 3.6 04:17:31 26° W 04:18:49 41° NW 04:21:52 10° NNE
STARLINK-1298 2.8 04:17:56 28° SW 04:19:24 78° SE 04:22:30 10° NE
Cosmos 2297 Rocket 3.4 04:15:30 10° NW 04:19:32 20° W 04:20:53 19° WSW
STARLINK-1272 2.9 04:18:20 26° SW 04:19:58 80° SE 04:23:12 10° NE
STARLINK-1293 2.8 04:18:46 27° SW 04:20:16 81° SE 04:23:23 10° NE
STARLINK-1311 2.6 04:19:08 30° SW 04:20:26 82° NW 04:23:25 10° NE
STARLINK-1207 2.9 04:19:20 26° SW 04:20:58 82° SE 04:24:10 10° NE
STARLINK-1255 2.8 04:20:30 26° SW 04:22:05 85° SE 04:25:11 10° NE
STARLINK-1266 2.9 04:21:06 25° SW 04:22:50 88° SE 04:26:04 10° NE
Cosmos 2082 4.0 04:18:16 10° NW 04:23:34 43° WSW 04:28:48 10° S
STARLINK-1238 4.5 04:19:50 10° NNW 04:23:54 53° NE 04:27:56 10° ESE
STARLINK-1284 2.9 04:22:31 24° SW 04:24:19 88° NW 04:27:33 10° NE
Cosmos 1892 2.9 04:21:40 18° SSW 04:24:20 52° W 04:28:05 10° N
STARLINK-1258 2.9 04:23:31 24° SW 04:25:20 86° NW 04:28:33 10° NE
SWIFT 4.1 04:25:31 15° SSW 04:26:10 15° SSW 04:28:36 10° SSE
Yuri Rocket 4.4 04:18:11 13° W 04:26:47 80° S 04:33:24 10° E
STARLINK-1292 2.9 04:25:18 22° SW 04:27:13 81° NW 04:30:28 10° NE
Cosmos 2322 Rocket 2.4 04:22:31 10° SSW 04:28:08 75° ESE 04:33:45 10° NNE
STARLINK-1274 2.9 04:26:46 21° SW 04:28:45 77° NW 04:32:00 10° NE
STARLINK-1201 4.2 04:24:48 10° NW 04:28:54 61° NE 04:32:59 10° SE
CZ-4C R/B 3.9 04:27:15 17° SSW 04:29:13 29° W 04:32:23 10° NW
STARLINK-1289 2.9 04:28:14 21° SW 04:30:16 73° NW 04:33:30 10° NE
STARLINK-41 3.5 04:28:31 20° WSW 04:30:18 43° NW 04:33:19 10° NNE
STARLINK-1303 3.0 04:29:38 20° SW 04:31:44 70° NW 04:35:01 10° NE
USA 234 4.1 04:26:52 10° NNE 04:32:44 37° NW 04:38:28 11° WSW
STARLINK-1312 3.0 04:31:06 19° SW 04:33:15 67° NW 04:36:30 10° NE
STARLINK-1206 4.0 04:29:45 10° NW 04:33:53 69° NE 04:37:59 10° SE
Cosmos 1869 3.5 04:30:55 10° NNW 04:34:39 47° W 04:38:20 10° SSW
Cosmos 372 Rocket 4.0 04:30:10 10° NNW 04:35:12 59° WSW 04:40:15 10° S
Cosmos 1400 Rocket 4.4 04:32:24 10° NW 04:35:13 18° W 04:36:51 15° WSW
Cosmos 2263 Rocket 3.5 04:30:13 10° N 04:35:33 44° ENE 04:40:49 10° SE
STARLINK-33 4.1 04:33:51 16° W 04:35:52 31° NW 04:38:45 10° NNE
PSLV R/B 3.8 04:33:16 10° N 04:37:20 50° WNW 04:41:23 10° SSW
Cosmos 2221 3.0 04:33:21 10° NNW 04:37:24 40° W 04:41:27 10° SSW
STARLINK-1205 3.8 04:34:42 10° NW 04:38:51 78° NE 04:42:58 10° SE
BREEZE-M TANK 2.9 04:38:04 11° SW 04:42:00 44° SE 04:44:52 10° ENE
STARLINK-1218 3.6 04:39:39 10° NW 04:43:48 87° NE 04:47:56 10° SE
Cosmos 1766 Rocket 4.2 04:40:41 10° S 04:45:00 60° E 04:49:18 10° NNE
PAYLOAD A 4.0 04:41:38 10° N 04:46:11 53° WNW 04:50:47 10° SSW
Meteor 1-31 Rocket 3.8 04:43:35 10° NNE 04:47:14 45° E 04:50:54 10° S
Cosmos 2151 2.9 04:44:01 10° S 04:48:13 77° W 04:52:28 10° N
STARLINK-1254 3.6 04:44:38 10° NW 04:48:47 83° SW 04:52:55 10° SE
NOSS 2-1 (C) 3.7 04:45:53 12° SW 04:48:57 36° WNW 04:52:07 10° N
SAR-Lupe-4 4.0 04:46:36 10° S 04:49:58 40° W 04:53:23 10° NNW
STARLINK-1212 4.3 04:48:02 10° W 04:50:17 18° SW 04:52:31 10° S
STARLINK-1105 4.3 04:48:32 10° W 04:50:45 18° SW 04:52:57 10° S
STARLINK-1247 4.4 04:49:28 10° W 04:51:41 18° SW 04:53:52 10° S
STARLINK-1227 4.4 04:49:57 10° W 04:52:06 17° SW 04:54:15 10° S
STARLINK-1226 4.4 04:50:50 10° W 04:52:59 17° SW 04:55:07 10° S
H-2A R/B 3.7 04:50:28 10° SW 04:53:01 15° W 04:55:36 10° WNW
NOSS 2-1 (D) 4.0 04:50:15 10° WSW 04:53:25 31° WNW 04:56:30 10° N
STARLINK-1231 3.5 04:49:39 10° NW 04:53:46 73° SW 04:57:53 10° SE
STARLINK-1215 4.4 04:51:50 10° W 04:53:55 17° SW 04:56:01 10° SSW
Cosmos 2227 Rocket 4.0 04:54:34 10° W 04:54:50 10° W 04:55:05 10° W
Cosmos 2218 Rocket 4.0 04:48:45 10° SSW 04:54:59 71° W 05:01:20 10° N
SL-16 R/B 2.6 04:49:35 10° SW 04:55:02 49° WNW 05:00:32 10° N
Cosmos 864 Rocket 4.5 04:49:08 10° S 04:55:15 78° W 05:01:24 10° N
Cosmos 1315 Rocket 3.6 04:52:01 10° NNW 04:55:26 29° W 04:58:52 10° SSW
STARLINK-1217 4.5 04:53:40 10° W 04:55:40 16° SW 04:57:40 10° SSW
Cosmos 2150 Rocket 4.2 04:52:48 10° NNW 04:57:44 47° WSW 05:02:37 10° S
STARLINK-1232 3.6 04:54:39 10° NW 04:58:45 64° SW 05:02:50 10° SSE
Shenzhou-11 Module 1.8 04:59:27 10° SW 05:01:52 57° SE 05:04:18 10° ENE
STARLINK-1319 4.5 04:58:32 10° SSW 05:02:30 47° SE 05:06:28 10° NE
CZ-4B R/B 3.7 04:59:17 10° NNE 05:02:56 48° E 05:06:27 10° S
STARLINK-1278 4.0 04:59:08 10° SSW 05:03:16 62° SE 05:07:24 10° NE
STARLINK-1208 3.7 04:59:37 10° NW 05:03:41 56° SW 05:07:43 10° SSE
STARLINK-1280 4.0 05:00:57 10° SSW 05:05:06 65° SE 05:09:15 10° NE
ALOS 3.1 05:00:41 10° NNE 05:05:15 55° E 05:09:48 10° S
Cosmos 2333 Rocket 4.4 05:02:33 10° SSE 05:07:03 25° ESE 05:11:34 10° NE
CZ-3C R/B 4.1 05:49:50 10° W 06:15:49 39° SSW 06:20:33 10° SE
